Home > Weather > Manizales > Past weeks

Flag for Colombia Past Weather in Manizales, Colombia — Yesterday and Last 2 Weeks

Now
72 °F

Passing clouds.


Feels Like: 75 °F
Forecast: 56 / 77 °F
Wind: 5 mph from Northeast

Location: Pereira / Matecana

Current Time: Aug 28, 2016 at 9:17:59 PM

Latest Report: Aug 28, 2016 at 8:00 PM


Visibility: N/A

Pressure: 30.04 "Hg (23.45 "Hg at 2139m altitude)

Humidity: 69%

Dew Point: 61 °F

Location of ManizalesLocation

Past Weather in Manizales — Graph

°F

Manizales Temperature Yesterday

Maximum temperature yesterday: 81 °F (at 2:00 PM)
Minimum temperature yesterday: 64 °F (at 12:00 AM)
Average temperature yesterday: 73 °F

High & Low Weather Summary for the Past Weeks

 TemperatureHumidityPressure
High90 °F (Aug 23, 3:00 PM)100% (Aug 26, 8:00 PM)30.15 "Hg (Aug 26, 8:00 PM)
Low63 °F (Aug 26, 8:00 PM)29% (Aug 21, 4:00 PM)29.88 "Hg (Aug 21, 4:00 PM)
Average75 °F70%30.03 "Hg
* Reported Aug 13 8:00 PM — Aug 28 8:00 PM, Manizales, Weather by CustomWeather, © 2016

Note: Actual official high and low records may vary slightly from our data, if they occured in-between our weather recording intervals... More about our weather records

Advertising

Manizales Weather History for the Previous 24 Hours

Scroll right to see more
 ConditionsComfort  
Time TempWeatherWind HumidityBarometerVisibility
8:00 PM
Sun, Aug 28
72 °FPassing clouds.5 mph69%30.04 "HgN/A
7:00 PM72 °FPassing clouds.9 mph73%30.00 "HgN/A
6:00 PM75 °FScattered showers. Scattered clouds.12 mph65%29.98 "Hg6 mi
5:00 PM77 °FThunderstorms. Scattered clouds.12 mph61%29.96 "Hg4 mi
4:00 PM79 °FScattered showers. Partly sunny.9 mph58%29.96 "HgN/A
3:00 PM84 °FScattered showers. Scattered clouds.2 mph43%29.99 "HgN/A
2:00 PM84 °FScattered showers. Scattered clouds.7 mph48%29.99 "HgN/A
1:00 PM84 °FPassing clouds.5 mph55%30.03 "HgN/A
12:00 PM81 °FPassing clouds.7 mph62%30.07 "HgN/A
11:00 AM77 °FScattered clouds.6 mph69%30.10 "HgN/A
10:00 AM75 °FScattered clouds.3 mph74%30.12 "HgN/A
9:00 AM70 °FScattered clouds.5 mph83%30.13 "HgN/A
8:00 AM72 °FScattered clouds.2 mph78%30.13 "HgN/A
7:00 AM66 °FScattered clouds.3 mph88%30.10 "HgN/A
6:00 AM66 °FPassing clouds.3 mph88%30.09 "HgN/A
5:00 AM66 °FPassing clouds.3 mph88%30.06 "HgN/A
12:00 AM70 °FPassing clouds.9 mph78%30.08 "HgN/A
11:00 PM
Sat, Aug 27
70 °FPassing clouds.5 mph83%30.09 "HgN/A
10:00 PM70 °FPassing clouds.2 mph78%30.08 "HgN/A
9:00 PM72 °FThunderstorms. Passing clouds.2 mph78%30.05 "HgN/A
Weather by CustomWeather, © 2016

See weather overviewHow to use our weather pages